Content
SEND FEEDBACK

Daily
Averages
Monthly
Summary
United States of America

LAURIE, MISSOURI


Home > North America > United States > Missouri
Elevation: 924 feet     Latitude: 38 25N     Longitude: 092 50W

WEATHER
 
SELECT A DAY
Number of Records: 455,163;   Date Range: 1/1/95 - 9/18/14
 
SHARE

PRINT THIS DATA

[ ← Previous Day ]
WEATHER ALMANAC - JANUARY 23, 2013
[ Next Day → ]
[ °C ]   °F
Weather ElementAverageHighLow
Temperature31.9 °F50 °F (3:15 pm)15.8 °F (1:35 am)
Dewpoint16.4 °F24.8 °F (11:55 am)6.8 °F (12:35 am)
Humidity55 %79 % (7:55 am)34 % (4:55 pm)
Barometer30.25 in30.38 in (11:55 pm)30.16 in (3:15 pm)
Wind Speed4.4 mph9.2 mph (12:15 pm)
Weather ElementAverage
Visibility10 mi
Wind DirectionSSE (170.1 °)

Weather ElementTotal
Precipitation---
Heating Degree Days32.1 (Base 65)
Averaged from 69 records on January 23, 2013
WEATHER CONDITIONS BREAKOUT
WIND DIRECTION BREAKOUT
WEATHER BY HOUR - JANUARY 23, 2013
[ °C ]   °F
Local TimeTemperatureDewpointHumidityBarometerVisibilityWind DirectionWind SpeedGust SpeedPrecipitationEventsConditions
12:35 AM17.6 °F6.8 °F63 %30.30 in10.0 miENE (70°)4.6 mph
12:55 AM17.6 °F6.8 °F63 %30.30 in10.0 miENE (70°)4.6 mph
1:15 AM17.6 °F6.8 °F63 %30.29 in10.0 miENE (60°)4.6 mph
1:35 AM15.8 °F6.8 °F68 %30.29 in10.0 miNE (50°)5.8 mph
1:55 AM15.8 °F6.8 °F68 %30.29 in10.0 miENE (60°)4.6 mph
2:15 AM15.8 °F6.8 °F68 %30.30 in10.0 miNE (50°)3.5 mph
2:35 AM15.8 °F6.8 °F68 %30.29 in10.0 miENE (70°)3.5 mph
2:55 AM15.8 °F6.8 °F68 %30.29 in10.0 miENE (60°)3.5 mph
3:15 AM15.8 °F6.8 °F68 %30.28 in10.0 miENE (60°)4.6 mph
3:35 AM15.8 °F6.8 °F68 %30.27 in10.0 miEast (80°)3.5 mph
3:55 AM15.8 °F8.6 °F73 %30.27 in10.0 miCalm
4:15 AM15.8 °F6.8 °F68 %30.27 in10.0 miESE (110°)3.5 mph
4:35 AM15.8 °F6.8 °F68 %30.26 in10.0 miESE (110°)3.5 mph
4:55 AM15.8 °F6.8 °F68 %30.26 in10.0 miCalm
5:15 AM15.8 °F6.8 °F68 %30.26 in10.0 miEast (90°)3.5 mph
5:35 AM15.8 °F6.8 °F68 %30.26 in10.0 miCalm
6:15 AM15.8 °F6.8 °F68 %30.27 in10.0 miCalm
6:35 AM15.8 °F6.8 °F68 %30.27 in10.0 miCalm
6:55 AM17.6 °F10.4 °F73 %30.27 in10.0 miSSE (160°)3.5 mph
7:15 AM17.6 °F10.4 °F73 %30.27 in10.0 miSouth (170°)3.5 mph
7:35 AM17.6 °F10.4 °F73 %30.26 in10.0 miSouth (170°)3.5 mph
7:55 AM17.6 °F12.2 °F79 %30.26 in10.0 miCalm
8:15 AM19.4 °F12.2 °F74 %30.26 in10.0 miSouth (190°)3.5 mph
8:35 AM21.2 °F14.0 °F74 %30.27 in10.0 miCalm
8:55 AM23.0 °F15.8 °F74 %30.26 in10.0 miSouth (180°)3.5 mph
9:15 AM24.8 °F15.8 °F69 %30.26 in10.0 miSouth (180°)3.5 mph
9:35 AM26.6 °F15.8 °F64 %30.26 in10.0 miCalm
9:55 AM28.4 °F19.4 °F69 %30.26 in10.0 miSW (220°)4.6 mph
10:15 AM32.0 °F19.4 °F60 %30.26 in10.0 miSW (230°)3.5 mph
10:35 AM35.6 °F21.2 °F56 %30.26 in10.0 miCalm
10:55 AM37.4 °F21.2 °F52 %30.24 in10.0 miCalm
11:15 AM39.2 °F21.2 °F49 %30.25 in10.0 miWest (260°)3.5 mph
11:35 AM42.8 °F23.0 °F46 %30.24 in10.0 miWest (270°)6.9 mph
11:55 AM42.8 °F24.8 °F49 %30.22 in10.0 miWest (260°)6.9 mph
12:15 PM44.6 °F24.8 °F46 %30.21 in10.0 miWest (260°)9.2 mph
12:35 PM46.4 °F24.8 °F43 %30.20 in10.0 miWNW (300°)8.1 mph
12:55 PM46.4 °F24.8 °F43 %30.18 in10.0 miWest (260°)5.8 mph
1:15 PM46.4 °F24.8 °F43 %30.17 in10.0 miWest (260°)6.9 mph
1:35 PM48.2 °F24.8 °F40 %30.17 in10.0 miNW (320°)4.6 mph
1:55 PM48.2 °F24.8 °F40 %30.17 in10.0 miWNW (300°)5.8 mph
2:15 PM48.2 °F24.8 °F40 %30.17 in10.0 miNW (320°)6.9 mph
2:35 PM48.2 °F24.8 °F40 %30.17 in10.0 miWest (260°)3.5 mph
2:55 PM48.2 °F24.8 °F40 %30.17 in10.0 miNW (320°)5.8 mph
3:15 PM50.0 °F24.8 °F37 %30.16 in10.0 miWNW (300°)5.8 mph
3:35 PM50.0 °F24.8 °F37 %30.17 in10.0 miNW (310°)5.8 mph
3:55 PM50.0 °F24.8 °F37 %30.17 in10.0 miNW (310°)5.8 mph
4:15 PM50.0 °F23.0 °F35 %30.17 in10.0 miNNW (330°)5.8 mph
4:35 PM48.2 °F23.0 °F37 %30.17 in10.0 miNW (310°)5.8 mph
4:55 PM48.2 °F21.2 °F34 %30.18 in10.0 miNNW (330°)4.6 mph
5:15 PM46.4 °F21.2 °F37 %30.19 in10.0 miNNW (340°)4.6 mph
5:35 PM44.6 °F21.2 °F39 %30.19 in10.0 miNNW (340°)4.6 mph
5:55 PM42.8 °F21.2 °F42 %30.21 in10.0 miNorth (360°)5.8 mph
6:15 PM42.8 °F21.2 °F42 %30.21 in10.0 miNorth (360°)4.6 mph
6:35 PM39.2 °F21.2 °F49 %30.22 in10.0 miNorth (10°)5.8 mph
6:55 PM39.2 °F21.2 °F49 %30.24 in10.0 miNorth (360°)5.8 mph
7:15 PM39.2 °F19.4 °F45 %30.25 in10.0 miNorth (10°)5.8 mph
7:35 PM39.2 °F19.4 °F45 %30.26 in10.0 miNorth (350°)4.6 mph
7:55 PM37.4 °F19.4 °F48 %30.26 in10.0 miNorth (350°)4.6 mph
8:15 PM37.4 °F19.4 °F48 %30.27 in10.0 miNorth (360°)4.6 mph
8:35 PM37.4 °F19.4 °F48 %30.28 in10.0 miNorth (10°)4.6 mph
8:55 PM37.4 °F19.4 °F48 %30.29 in10.0 miNorth (10°)6.9 mph
9:15 PM35.6 °F19.4 °F52 %30.30 in10.0 miNorth (10°)5.8 mph
9:35 PM35.6 °F17.6 °F48 %30.32 in10.0 miNorth (360°)6.9 mph
10:15 PM33.8 °F17.6 °F52 %30.33 in10.0 miNorth (10°)6.9 mph
10:35 PM33.8 °F17.6 °F52 %30.34 in10.0 miNNE (20°)6.9 mph
10:55 PM32.0 °F15.8 °F51 %30.35 in10.0 miNNE (30°)6.9 mph
11:15 PM30.2 °F15.8 °F55 %30.37 in10.0 miNorth (360°)4.6 mph
11:35 PM30.2 °F15.8 °F55 %30.37 in10.0 miNorth (10°)5.8 mph
11:55 PM30.2 °F14.0 °F51 %30.38 in10.0 miNorth (360°)4.6 mph
Hourly data recorded from KAIZ, located miles away from Laurie, Missouri







STORIES FROM OUR PARTNERS